When you browse on this site, cookies collect data to enhance your experience and personalize the content and advertising you see.
Visit our Privacy Policy to learn more. By continuing to use the site, you agree to this use of cookies and data.
  • In Sweden
  • List of Countries
  • For 7 days
  • Water Temperature
  • Weather Map
  • Weather Widgets
  • user-avatar
    Login

    Hourly Weather Osaka

    Today, 21 September, Saturday

    Time Temperature Precipitation Wind Pressure Humidity
    00:00 +21°C° 2.1 mm 2 mps 764 mmHg 78%
    01:00 +21°C° 0.8 mm 2 mps 763 mmHg 78%
    02:00 +21°C° 0.8 mm 3 mps 763 mmHg 78%
    03:00 +22°C° 0 mm 3 mps 763 mmHg 72%
    04:00 +22°C° 0 mm 3 mps 763 mmHg 72%
    05:00 +22°C° 0 mm 3 mps 763 mmHg 72%
    06:00 +22°C° 0 mm 3 mps 763 mmHg 73%
    07:00 +22°C° 0.4 mm 3 mps 764 mmHg 74%
    08:00 +22°C° 0.4 mm 3 mps 764 mmHg 76%
    09:00 +22°C° 0.4 mm 3 mps 764 mmHg 77%
    10:00 +23°C° 0.3 mm 4 mps 764 mmHg 75%
    11:00 +23°C° 0.3 mm 4 mps 764 mmHg 74%
    12:00 +23°C° 0.3 mm 4 mps 764 mmHg 72%
    13:00 +26°C° 0 mm 5 mps 763 mmHg 66%
    14:00 +27°C° 0 mm 5 mps 763 mmHg 61%
    15:00 +28°C° 0 mm 5 mps 762 mmHg 55%
    16:00 +28°C° 0 mm 5 mps 763 mmHg 58%
    17:00 +27°C° 0 mm 5 mps 763 mmHg 61%
    18:00 +27°C° 0 mm 4 mps 763 mmHg 64%
    19:00 +26°C° 0 mm 4 mps 763 mmHg 64%
    20:00 +26°C° 0 mm 4 mps 763 mmHg 64%
    21:00 +26°C° 0 mm 4 mps 763 mmHg 64%
    22:00 +26°C° 0 mm 4 mps 763 mmHg 65%
    23:00 +26°C° 0 mm 3 mps 763 mmHg 66%

    Tomorrow, 22 September, Sunday

    Time Temperature Precipitation Wind Pressure Humidity
    00:00 +25°C° 0 mm 3 mps 762 mmHg 67%
    01:00 +25°C° 0 mm 4 mps 762 mmHg 68%
    02:00 +25°C° 0 mm 4 mps 762 mmHg 70%
    03:00 +25°C° 0 mm 4 mps 762 mmHg 71%
    04:00 +25°C° 0 mm 4 mps 761 mmHg 72%
    05:00 +25°C° 0 mm 4 mps 761 mmHg 73%
    06:00 +25°C° 0 mm 4 mps 761 mmHg 73%
    07:00 +26°C° 0 mm 5 mps 761 mmHg 69%
    08:00 +27°C° 0 mm 5 mps 761 mmHg 66%
    09:00 +28°C° 0 mm 5 mps 761 mmHg 62%
    10:00 +29°C° 0 mm 5 mps 760 mmHg 59%
    11:00 +30°C° 0 mm 6 mps 760 mmHg 57%
    12:00 +32°C° 0 mm 6 mps 759 mmHg 55%
    13:00 +30°C° 0.1 mm 5 mps 759 mmHg 57%
    14:00 +30°C° 0.1 mm 5 mps 759 mmHg 60%
    15:00 +29°C° 0.1 mm 4 mps 759 mmHg 62%
    16:00 +29°C° 0.1 mm 4 mps 759 mmHg 64%
    17:00 +29°C° 0.1 mm 4 mps 759 mmHg 67%
    18:00 +28°C° 0.1 mm 3 mps 759 mmHg 69%
    19:00 +28°C° 0 mm 3 mps 759 mmHg 71%
    20:00 +28°C° 0 mm 3 mps 759 mmHg 74%
    21:00 +27°C° 0 mm 3 mps 759 mmHg 76%
    22:00 +27°C° 0 mm 3 mps 758 mmHg 78%
    23:00 +27°C° 0 mm 3 mps 758 mmHg 79%

    Day after tomorrow, 23 September, Monday

    Time Temperature Precipitation Wind Pressure Humidity
    00:00 +27°C° 0 mm 3 mps 758 mmHg 80%
    01:00 +27°C° 0 mm 3 mps 757 mmHg 80%
    02:00 +27°C° 0 mm 3 mps 757 mmHg 79%
    03:00 +27°C° 0 mm 3 mps 756 mmHg 79%
    04:00 +27°C° 0 mm 3 mps 756 mmHg 79%
    05:00 +27°C° 0 mm 3 mps 756 mmHg 79%
    06:00 +27°C° 0 mm 3 mps 756 mmHg 78%
    07:00 +29°C° 0.2 mm 5 mps 756 mmHg 74%
    08:00 +30°C° 0.2 mm 7 mps 756 mmHg 69%
    09:00 +32°C° 0.2 mm 8 mps 756 mmHg 65%
    10:00 +33°C° 0.2 mm 9 mps 756 mmHg 63%
    11:00 +33°C° 0.2 mm 10 mps 756 mmHg 62%
    12:00 +34°C° 0.2 mm 11 mps 755 mmHg 61%
    13:00 +34°C° 0 mm 11 mps 755 mmHg 60%
    14:00 +34°C° 0 mm 11 mps 755 mmHg 58%
    15:00 +34°C° 0 mm 11 mps 755 mmHg 57%
    16:00 +32°C° 0.2 mm 9 mps 756 mmHg 61%
    17:00 +31°C° 0.2 mm 8 mps 756 mmHg 64%
    18:00 +29°C° 0.2 mm 7 mps 756 mmHg 68%
    19:00 +28°C° 0.1 mm 6 mps 757 mmHg 67%
    20:00 +28°C° 0.1 mm 5 mps 757 mmHg 65%
    21:00 +27°C° 0.1 mm 4 mps 758 mmHg 64%
    22:00 +26°C° 0 mm 4 mps 758 mmHg 65%
    23:00 +26°C° 0 mm 3 mps 758 mmHg 67%

    24 September, Tuesday

    Time Temperature Precipitation Wind Pressure Humidity
    00:00 +26°C° 0 mm 3 mps 758 mmHg 68%
    01:00 +25°C° 0 mm 3 mps 758 mmHg 68%
    02:00 +25°C° 0 mm 2 mps 758 mmHg 68%
    03:00 +25°C° 0 mm 2 mps 758 mmHg 68%
    04:00 +25°C° 0 mm 2 mps 759 mmHg 68%
    05:00 +25°C° 0 mm 2 mps 759 mmHg 68%
    06:00 +24°C° 0 mm 3 mps 760 mmHg 69%
    07:00 +25°C° 0 mm 3 mps 760 mmHg 66%
    08:00 +25°C° 0 mm 3 mps 760 mmHg 63%
    09:00 +25°C° 0 mm 3 mps 761 mmHg 60%
    10:00 +27°C° 0 mm 3 mps 761 mmHg 56%
    11:00 +28°C° 0 mm 3 mps 761 mmHg 52%
    12:00 +29°C° 0 mm 3 mps 761 mmHg 48%
    13:00 +29°C° 0 mm 4 mps 760 mmHg 48%
    14:00 +29°C° 0 mm 4 mps 760 mmHg 49%
    15:00 +29°C° 0 mm 5 mps 760 mmHg 50%
    16:00 +27°C° 0 mm 5 mps 760 mmHg 53%
    17:00 +26°C° 0 mm 5 mps 761 mmHg 56%
    18:00 +25°C° 0 mm 5 mps 761 mmHg 59%
    19:00 +25°C° 0 mm 4 mps 762 mmHg 61%
    20:00 +23°C° 0 mm 4 mps 762 mmHg 63%
    21:00 +24°C° 0 mm 3 mps 763 mmHg 65%
    22:00 +22°C° 0 mm 3 mps 763 mmHg 65%
    23:00 +22°C° 0 mm 3 mps 763 mmHg 65%

    25 September, Wednesday

    Time Temperature Precipitation Wind Pressure Humidity
    00:00 +22°C° 0 mm 3 mps 763 mmHg 65%
    01:00 +22°C° 0 mm 3 mps 763 mmHg 66%
    02:00 +22°C° 0 mm 3 mps 763 mmHg 66%
    03:00 +22°C° 0 mm 3 mps 764 mmHg 66%
    04:00 +23°C° 0 mm 2 mps 764 mmHg 67%
    05:00 +21°C° 0 mm 2 mps 764 mmHg 68%
    06:00 +21°C° 0 mm 2 mps 764 mmHg 69%
    07:00 +24°C° 0 mm 2 mps 764 mmHg 65%
    08:00 +25°C° 0 mm 3 mps 765 mmHg 61%
    09:00 +26°C° 0 mm 3 mps 765 mmHg 57%
    10:00 +27°C° 0 mm 3 mps 765 mmHg 52%
    11:00 +28°C° 0 mm 3 mps 765 mmHg 47%
    12:00 +30°C° 0 mm 4 mps 765 mmHg 42%
    13:00 +30°C° 0 mm 4 mps 765 mmHg 43%
    14:00 +30°C° 0 mm 4 mps 764 mmHg 43%
    15:00 +30°C° 0 mm 5 mps 764 mmHg 43%
    16:00 +29°C° 0 mm 5 mps 765 mmHg 48%
    17:00 +27°C° 0 mm 4 mps 765 mmHg 54%
    18:00 +26°C° 0 mm 4 mps 765 mmHg 60%
    19:00 +25°C° 0 mm 4 mps 766 mmHg 61%
    20:00 +25°C° 0 mm 3 mps 766 mmHg 63%
    21:00 +24°C° 0 mm 2 mps 766 mmHg 65%
    22:00 +24°C° 0 mm 2 mps 766 mmHg 67%
    23:00 +24°C° 0 mm 2 mps 766 mmHg 68%

    26 September, Thursday

    Time Temperature Precipitation Wind Pressure Humidity
    00:00 +23°C° 0 mm 2 mps 766 mmHg 70%
    01:00 +23°C° 0 mm 2 mps 766 mmHg 71%
    02:00 +23°C° 0 mm 2 mps 766 mmHg 72%
    03:00 +23°C° 0 mm 2 mps 766 mmHg 74%
    04:00 +23°C° 0 mm 2 mps 766 mmHg 74%
    05:00 +23°C° 0 mm 2 mps 766 mmHg 75%
    06:00 +23°C° 0 mm 2 mps 766 mmHg 75%
    07:00 +24°C° 0 mm 2 mps 766 mmHg 70%
    08:00 +26°C° 0 mm 2 mps 766 mmHg 65%
    09:00 +27°C° 0 mm 2 mps 766 mmHg 60%
    10:00 +29°C° 0 mm 2 mps 766 mmHg 55%
    11:00 +30°C° 0 mm 2 mps 766 mmHg 50%
    12:00 +32°C° 0 mm 2 mps 766 mmHg 45%
    13:00 +32°C° 0 mm 2 mps 765 mmHg 45%
    14:00 +32°C° 0 mm 2 mps 765 mmHg 45%
    15:00 +32°C° 0 mm 2 mps 765 mmHg 45%
    16:00 +31°C° 0 mm 2 mps 765 mmHg 49%
    17:00 +30°C° 0 mm 2 mps 765 mmHg 53%
    18:00 +29°C° 0 mm 2 mps 765 mmHg 57%
    19:00 +29°C° 0 mm 2 mps 766 mmHg 59%
    20:00 +28°C° 0 mm 2 mps 766 mmHg 61%
    21:00 +27°C° 0 mm 1 mps 766 mmHg 63%
    22:00 +27°C° 0 mm 2 mps 766 mmHg 64%
    23:00 +26°C° 0 mm 2 mps 766 mmHg 65%
    Show more